When you browse on this site, cookies collect data to enhance your experience and personalize the content and advertising you see.
Visit our Privacy Policy to learn more. By continuing to use the site, you agree to this use of cookies and data.
  • In Portugal
  • List of Countries
  • For 7 days
  • Water Temperature
  • Satellite Maps
  • Weather Map
  • Weather Widgets
  • user-avatar
    Login

    Hourly Weather Shargorod

    Today, 19 January, Saturday

    Time Temperature Precipitation Wind Pressure Humidity
    00:00 -2°C° 0 mm 4 mps 738 mmHg 91%
    01:00 -3°C° 0 mm 4 mps 739 mmHg 92%
    02:00 -3°C° 0 mm 4 mps 739 mmHg 93%
    03:00 -4°C° 0 mm 4 mps 739 mmHg 93%
    04:00 -5°C° 0 mm 3 mps 739 mmHg 93%
    05:00 -7°C° 0 mm 3 mps 740 mmHg 94%
    06:00 -8°C° 0 mm 3 mps 740 mmHg 93%
    07:00 -9°C° 0 mm 3 mps 741 mmHg 93%
    08:00 -10°C° 0 mm 3 mps 741 mmHg 92%
    09:00 -9°C° 0 mm 3 mps 742 mmHg 92%
    10:00 -7°C° 0 mm 2 mps 742 mmHg 91%
    11:00 -6°C° 0 mm 2 mps 743 mmHg 90%
    12:00 -6°C° 0 mm 2 mps 743 mmHg 91%
    13:00 -5°C° 0 mm 2 mps 743 mmHg 91%
    14:00 -3°C° 0 mm 1 mps 743 mmHg 92%
    15:00 -4°C° 0 mm 1 mps 743 mmHg 92%
    16:00 -6°C° 0 mm 1 mps 743 mmHg 92%
    17:00 -7°C° 0 mm 1 mps 743 mmHg 92%
    18:00 -8°C° 0 mm 1 mps 743 mmHg 92%
    19:00 -9°C° 0 mm 1 mps 743 mmHg 91%
    20:00 -10°C° 0 mm 0 mps 743 mmHg 91%
    21:00 -10°C° 0 mm 0 mps 744 mmHg 91%
    22:00 -10°C° 0 mm 0 mps 744 mmHg 90%
    23:00 -10°C° 0 mm 1 mps 744 mmHg 89%

    Tomorrow, 20 January, Sunday

    Time Temperature Precipitation Wind Pressure Humidity
    00:00 -9°C° 0 mm 1 mps 744 mmHg 89%
    01:00 -9°C° 0 mm 1 mps 744 mmHg 88%
    02:00 -10°C° 0 mm 2 mps 743 mmHg 88%
    03:00 -9°C° 0 mm 2 mps 743 mmHg 88%
    04:00 -9°C° 0 mm 2 mps 743 mmHg 89%
    05:00 -9°C° 0 mm 2 mps 742 mmHg 90%
    06:00 -9°C° 0.1 mm 3 mps 742 mmHg 90%
    07:00 -9°C° 0.1 mm 3 mps 742 mmHg 90%
    08:00 -8°C° 0.1 mm 3 mps 742 mmHg 91%
    09:00 -8°C° 0.2 mm 3 mps 742 mmHg 92%
    10:00 -8°C° 0.2 mm 4 mps 742 mmHg 92%
    11:00 -8°C° 0.2 mm 4 mps 741 mmHg 93%
    12:00 -8°C° 0.2 mm 4 mps 741 mmHg 93%
    13:00 -7°C° 0.2 mm 4 mps 740 mmHg 94%
    14:00 -7°C° 0.2 mm 4 mps 740 mmHg 94%
    15:00 -6°C° 0.3 mm 3 mps 739 mmHg 95%
    16:00 -6°C° 0.3 mm 3 mps 739 mmHg 96%
    17:00 -4°C° 0.3 mm 2 mps 739 mmHg 97%
    18:00 -4°C° 0.5 mm 2 mps 739 mmHg 97%
    19:00 -4°C° 0.5 mm 2 mps 738 mmHg 97%
    20:00 -2°C° 0.5 mm 1 mps 738 mmHg 98%
    21:00 -4°C° 0.4 mm 2 mps 738 mmHg 98%
    22:00 -4°C° 0.4 mm 2 mps 738 mmHg 97%
    23:00 -4°C° 0.4 mm 2 mps 738 mmHg 97%

    Day after tomorrow, 21 January, Monday

    Time Temperature Precipitation Wind Pressure Humidity
    00:00 -5°C° 0.3 mm 3 mps 738 mmHg 97%
    01:00 -6°C° 0.3 mm 3 mps 738 mmHg 96%
    02:00 -7°C° 0.3 mm 4 mps 738 mmHg 96%
    03:00 -7°C° 0.1 mm 4 mps 738 mmHg 95%
    04:00 -8°C° 0.1 mm 4 mps 738 mmHg 95%
    05:00 -8°C° 0.1 mm 4 mps 739 mmHg 94%
    06:00 -9°C° 0 mm 4 mps 739 mmHg 94%
    07:00 -9°C° 0 mm 4 mps 740 mmHg 94%
    08:00 -10°C° 0 mm 4 mps 740 mmHg 94%
    09:00 -10°C° 0 mm 4 mps 741 mmHg 93%
    10:00 -10°C° 0 mm 4 mps 741 mmHg 92%
    11:00 -10°C° 0 mm 4 mps 742 mmHg 91%
    12:00 -9°C° 0 mm 4 mps 742 mmHg 92%
    13:00 -9°C° 0 mm 4 mps 742 mmHg 93%
    14:00 -8°C° 0 mm 4 mps 742 mmHg 94%
    15:00 -7°C° 0 mm 3 mps 742 mmHg 94%
    16:00 -8°C° 0 mm 3 mps 743 mmHg 93%
    17:00 -8°C° 0 mm 3 mps 743 mmHg 93%
    18:00 -8°C° 0 mm 2 mps 743 mmHg 93%
    19:00 -9°C° 0 mm 2 mps 743 mmHg 93%
    20:00 -9°C° 0 mm 1 mps 744 mmHg 93%
    21:00 -11°C° 0 mm 1 mps 744 mmHg 94%
    22:00 -12°C° 0 mm 1 mps 744 mmHg 96%
    23:00 -14°C° 0 mm 1 mps 744 mmHg 97%

    22 January, Tuesday

    Time Temperature Precipitation Wind Pressure Humidity
    00:00 -14°C° 0 mm 1 mps 744 mmHg 97%
    01:00 -14°C° 0 mm 1 mps 743 mmHg 96%
    02:00 -14°C° 0 mm 1 mps 743 mmHg 96%
    03:00 -14°C° 0 mm 1 mps 743 mmHg 96%
    04:00 -14°C° 0 mm 1 mps 743 mmHg 96%
    05:00 -17°C° 0 mm 2 mps 742 mmHg 95%
    06:00 -16°C° 0 mm 2 mps 742 mmHg 95%
    07:00 -16°C° 0 mm 2 mps 742 mmHg 94%
    08:00 -16°C° 0 mm 3 mps 742 mmHg 94%
    09:00 -15°C° 0 mm 3 mps 742 mmHg 93%
    10:00 -14°C° 0 mm 3 mps 741 mmHg 92%
    11:00 -14°C° 0 mm 4 mps 741 mmHg 91%
    12:00 -12°C° 0 mm 4 mps 741 mmHg 91%
    13:00 -12°C° 0 mm 4 mps 740 mmHg 91%
    14:00 -10°C° 0 mm 3 mps 739 mmHg 91%
    15:00 -10°C° 0 mm 3 mps 739 mmHg 92%
    16:00 -10°C° 0 mm 3 mps 739 mmHg 94%
    17:00 -10°C° 0 mm 3 mps 738 mmHg 96%
    18:00 -9°C° 0 mm 3 mps 738 mmHg 96%
    19:00 -9°C° 0 mm 3 mps 738 mmHg 96%
    20:00 -9°C° 0 mm 4 mps 738 mmHg 96%
    21:00 -8°C° 0.1 mm 3 mps 737 mmHg 96%
    22:00 -7°C° 0.1 mm 3 mps 737 mmHg 96%
    23:00 -7°C° 0.1 mm 3 mps 737 mmHg 96%

    23 January, Wednesday

    Time Temperature Precipitation Wind Pressure Humidity
    00:00 -6°C° 0.2 mm 3 mps 736 mmHg 96%
    01:00 -7°C° 0.2 mm 4 mps 736 mmHg 96%
    02:00 -5°C° 0.2 mm 4 mps 736 mmHg 96%
    03:00 -5°C° 0.3 mm 4 mps 735 mmHg 96%
    04:00 -5°C° 0.3 mm 4 mps 735 mmHg 96%
    05:00 -5°C° 0.3 mm 4 mps 734 mmHg 96%
    06:00 -5°C° 0.3 mm 4 mps 734 mmHg 96%
    07:00 -5°C° 0.3 mm 4 mps 734 mmHg 96%
    08:00 -5°C° 0.3 mm 4 mps 734 mmHg 96%
    09:00 -5°C° 0.2 mm 4 mps 734 mmHg 96%
    10:00 -5°C° 0.2 mm 4 mps 734 mmHg 96%
    11:00 -5°C° 0.2 mm 4 mps 734 mmHg 96%
    12:00 -5°C° 0.1 mm 4 mps 734 mmHg 96%
    13:00 -4°C° 0.1 mm 4 mps 733 mmHg 96%
    14:00 -4°C° 0.1 mm 4 mps 733 mmHg 96%
    15:00 -4°C° 0.1 mm 4 mps 733 mmHg 96%
    16:00 -4°C° 0.1 mm 4 mps 733 mmHg 96%
    17:00 -5°C° 0.1 mm 5 mps 733 mmHg 96%
    18:00 -5°C° 0.2 mm 5 mps 733 mmHg 96%
    19:00 -4°C° 0.2 mm 5 mps 733 mmHg 95%
    20:00 -4°C° 0.2 mm 5 mps 733 mmHg 95%
    21:00 -4°C° 0.1 mm 5 mps 734 mmHg 95%
    22:00 -4°C° 0.1 mm 5 mps 734 mmHg 95%
    23:00 -4°C° 0.1 mm 5 mps 734 mmHg 95%

    24 January, Thursday

    Time Temperature Precipitation Wind Pressure Humidity
    00:00 -4°C° 0.1 mm 5 mps 734 mmHg 95%
    01:00 -4°C° 0.1 mm 5 mps 733 mmHg 95%
    02:00 -4°C° 0.1 mm 5 mps 733 mmHg 95%
    03:00 -4°C° 0.1 mm 5 mps 733 mmHg 95%
    04:00 -4°C° 0.1 mm 5 mps 733 mmHg 95%
    05:00 -2°C° 0.1 mm 5 mps 733 mmHg 95%
    06:00 -4°C° 0.1 mm 5 mps 733 mmHg 95%
    07:00 -4°C° 0.1 mm 5 mps 733 mmHg 95%
    08:00 -5°C° 0.1 mm 5 mps 733 mmHg 95%
    09:00 -4°C° 0.1 mm 5 mps 733 mmHg 96%
    10:00 -4°C° 0.1 mm 5 mps 733 mmHg 96%
    11:00 -2°C° 0.1 mm 5 mps 733 mmHg 97%
    12:00 -2°C° 0.3 mm 5 mps 733 mmHg 98%
    13:00 -2°C° 0.3 mm 5 mps 732 mmHg 98%
    14:00 -2°C° 0.3 mm 5 mps 732 mmHg 99%
    15:00 -2°C° 0.8 mm 5 mps 732 mmHg 99%
    16:00 -1°C° 0.8 mm 5 mps 732 mmHg 98%
    17:00 -1°C° 0.8 mm 5 mps 732 mmHg 98%
    18:00 -1°C° 1 mm 4 mps 732 mmHg 98%
    19:00 -1°C° 1 mm 4 mps 732 mmHg 99%
    20:00 0°C° 1 mm 3 mps 732 mmHg 99%
    21:00 +1°C° 0.6 mm 3 mps 732 mmHg 99%
    22:00 +1°C° 0.6 mm 3 mps 732 mmHg 99%
    23:00 +2°C° 0.6 mm 2 mps 732 mmHg 99%
    Show more